Location: Trois-Rivi�res
(46.3500°N, 72.5500°W)
Time: 04:01:51
(UTC-04:00)

Envisat - Visible Passes

Search period start: 22 October 2017 00:00
Search period end: 01 November 2017 00:00
Orbit: 764 x 766 km, 98.2° (Epoch: 21 October)

Date Brightness Start Highest point End Pass type
(mag) Time Alt. Az. Time Alt. Az. Time Alt. Az.
22 Oct 4.8 18:44:36 12° ENE 18:45:40 12° NE 18:47:41 10° NNE visible
22 Oct 3.3 20:24:49 57° N 20:24:49 57° N 20:28:55 10° N visible
22 Oct 5.8 22:05:02 13° WNW 22:05:02 13° WNW 22:06:15 10° NW visible
23 Oct 3.6 19:47:50 36° NE 19:47:50 36° NE 19:51:55 10° N visible
23 Oct 5.0 21:28:03 25° WNW 21:28:03 25° WNW 21:30:50 10° NNW visible
24 Oct 4.3 19:10:51 20° ENE 19:10:54 20° ENE 19:14:28 10° NNE visible
24 Oct 4.0 20:51:04 42° NW 20:51:04 42° NW 20:54:31 10° NNW visible
25 Oct 3.5 20:14:04 45° NNE 20:14:04 45° NNE 20:17:46 10° N visible
25 Oct 5.7 21:54:17 15° WNW 21:54:17 15° WNW 21:55:41 10° NW visible
26 Oct 3.9 19:37:05 29° NE 19:37:05 29° NE 19:40:39 10° N visible
26 Oct 4.9 21:17:18 26° NW 21:17:18 26° NW 21:19:53 10° NNW visible
27 Oct 4.5 19:00:05 16° NE 19:00:05 16° NE 19:02:59 10° NNE visible
27 Oct 4.1 20:40:18 38° NNW 20:40:18 38° NNW 20:43:26 10° NNW visible
28 Oct 3.8 20:03:18 36° NNE 20:03:18 36° NNE 20:06:35 10° N visible
28 Oct 5.6 21:43:31 16° NW 21:43:31 16° NW 21:44:58 10° NW visible
29 Oct 4.2 19:26:18 24° NE 19:26:18 24° NE 19:29:21 10° N visible
29 Oct 4.8 21:06:32 26° NW 21:06:32 26° NW 21:08:54 10° NNW visible
30 Oct 4.7 18:49:19 13° NE 18:49:19 13° NE 18:51:21 10° NNE visible
30 Oct 4.2 20:29:32 33° N 20:29:32 33° N 20:32:19 10° NNW visible
31 Oct 4.1 19:52:32 29° NNE 19:52:32 29° NNE 19:55:22 10° N visible
31 Oct 5.5 21:32:45 17° NW 21:32:45 17° NW 21:34:08 10° NW visible
